| time (UTC) | temp C | wind direction | speed KPH | gust KPH | rain 1hr cm | rain 24hr cm | rain mn cm | humidity % | barometer mb |
| 20260510083027 | 17 | 143 | 1.6 | 3.2 | 0.00 | 0.00 | 0.00 | 68 | 1014.0 |
| 20260510082524 | 17 | 157 | 0.0 | 0.0 | 0.00 | 0.00 | 0.00 | 70 | 1014.0 |
| 20260510082019 | 16 | 170 | 1.6 | 1.6 | 0.00 | 0.00 | 0.00 | 73 | 1013.8 |
| 20260510081514 | 16 | 210 | 4.8 | 4.8 | 0.00 | 0.00 | 0.00 | 71 | 1013.9 |
| 20260510081010 | 16 | 152 | 0.0 | 0.0 | 0.00 | 0.00 | 0.00 | 72 | 1013.2 |
| 20260510080509 | 16 | 156 | 0.0 | 0.0 | 0.00 | 0.00 | 0.00 | 68 | 1012.9 |
| 20260510080006 | 17 | 155 | 0.0 | 0.0 | 0.00 | 0.00 | 0.00 | 69 | 1012.8 |
| 20260510075504 | 17 | 151 | 1.6 | 1.6 | 0.00 | 0.00 | 0.00 | 68 | 1012.7 |
| 20260510075000 | 17 | 150 | 1.6 | 1.6 | 0.00 | 0.00 | 0.00 | 67 | 1012.8 |
| 20260510074458 | 17 | 159 | 1.6 | 1.6 | 0.00 | 0.00 | 0.00 | 65 | 1012.7 |
| 20260510073953 | 17 | 156 | 4.8 | 6.4 | 0.00 | 0.00 | 0.00 | 64 | 1012.8 |
| 20260510073449 | 17 | 156 | 3.2 | 4.8 | 0.00 | 0.00 | 0.00 | 66 | 1012.7 |
| 20260510072946 | 17 | 153 | 4.8 | 6.4 | 0.00 | 0.00 | 0.00 | 66 | 1012.9 |
| 20260510072443 | 17 | 163 | 8.0 | 9.7 | 0.00 | 0.00 | 0.00 | 66 | 1013.1 |
| 20260510071938 | 17 | 186 | 6.4 | 9.7 | 0.00 | 0.00 | 0.00 | 66 | 1013.2 |
| 20260510071435 | 17 | 178 | 9.7 | 12.9 | 0.00 | 0.00 | 0.00 | 66 | 1013.1 |
| 20260510070933 | 17 | 181 | 6.4 | 9.7 | 0.00 | 0.00 | 0.00 | 66 | 1013.2 |
| 20260510070430 | 17 | 189 | 6.4 | 6.4 | 0.00 | 0.00 | 0.00 | 67 | 1013.1 |
| 20260510065926 | 17 | 184 | 6.4 | 6.4 | 0.00 | 0.00 | 0.00 | 67 | 1013.1 |
| 20260510065423 | 18 | 172 | 6.4 | 9.7 | 0.00 | 0.00 | 0.00 | 64 | 1013.4 |
| 20260510064919 | 18 | 179 | 6.4 | 9.7 | 0.00 | 0.00 | 0.00 | 63 | 1013.1 |
| 20260510064417 | 18 | 177 | 8.0 | 9.7 | 0.00 | 0.00 | 0.00 | 63 | 1013.1 |
| 20260510063913 | 17 | 174 | 4.8 | 4.8 | 0.00 | 0.00 | 0.00 | 65 | 1013.1 |
| 20260510063409 | 17 | 179 | 3.2 | 4.8 | 0.00 | 0.00 | 0.00 | 65 | 1013.5 |
| 20260510062907 | 17 | 161 | 8.0 | 9.7 | 0.00 | 0.00 | 0.00 | 66 | 1013.6 |
| 20260510062402 | 17 | 172 | 3.2 | 4.8 | 0.00 | 0.00 | 0.00 | 69 | 1013.7 |
| 20260510061858 | 16 | 172 | 3.2 | 4.8 | 0.00 | 0.00 | 0.00 | 69 | 1013.8 |
| 20260510061355 | 15 | 161 | 0.0 | 0.0 | 0.00 | 0.00 | 0.00 | 79 | 1013.8 |
| 20260510060850 | 15 | 157 | 0.0 | 0.0 | 0.00 | 0.00 | 0.00 | 80 | 1013.8 |
| 20260510060347 | 15 | 157 | 1.6 | 1.6 | 0.00 | 0.00 | 0.00 | 81 | 1013.8 |
| 20260510055843 | 14 | 157 | 0.0 | 0.0 | 0.00 | 0.00 | 0.00 | 86 | 1013.7 |
| 20260510055343 | 14 | 156 | 0.0 | 0.0 | 0.00 | 0.00 | 0.00 | 86 | 1013.7 |
| 20260510054837 | 14 | 155 | 0.0 | 0.0 | 0.00 | 0.00 | 0.00 | 85 | 1013.6 |
| 20260510054333 | 14 | 156 | 0.0 | 0.0 | 0.00 | 0.00 | 0.00 | 85 | 1013.8 |
| 20260510053828 | 13 | 156 | 0.0 | 0.0 | 0.00 | 0.00 | 0.00 | 86 | 1013.8 |
| 20260510053323 | 13 | 155 | 0.0 | 0.0 | 0.00 | 0.00 | 0.00 | 85 | 1014.0 |
| 20260510052820 | 13 | 159 | 0.0 | 0.0 | 0.00 | 0.00 | 0.00 | 86 | 1014.1 |
| 20260510052316 | 13 | 159 | 0.0 | 0.0 | 0.00 | 0.00 | 0.00 | 86 | 1014.0 |
| 20260510051812 | 13 | 159 | 0.0 | 0.0 | 0.00 | 0.00 | 0.00 | 85 | 1013.7 |
| 20260510051309 | 14 | 160 | 0.0 | 0.0 | 0.00 | 0.00 | 0.00 | 84 | 1013.6 |
| 20260510050806 | 14 | 158 | 0.0 | 0.0 | 0.00 | 0.00 | 0.00 | 83 | 1013.7 |
| 20260510050303 | 15 | 155 | 0.0 | 1.6 | 0.00 | 0.00 | 0.00 | 83 | 1013.6 |
| 20260510045800 | 14 | 152 | 0.0 | 1.6 | 0.00 | 0.00 | 0.00 | 82 | 1013.6 |
| 20260510045256 | 15 | 157 | 0.0 | 0.0 | 0.00 | 0.00 | 0.00 | 81 | 1013.6 |
| 20260510044754 | 15 | 157 | 0.0 | 0.0 | 0.00 | 0.00 | 0.00 | 76 | 1013.5 |
| 20260510044250 | 16 | 159 | 0.0 | 0.0 | 0.00 | 0.00 | 0.00 | 74 | 1013.6 |
| 20260510043746 | 15 | 148 | 1.6 | 1.6 | 0.00 | 0.00 | 0.00 | 75 | 1013.7 |
| 20260510043237 | 14 | 152 | 0.0 | 0.0 | 0.00 | 0.00 | 0.00 | 78 | 1013.7 |
| 20260510042735 | 14 | 156 | 0.0 | 1.6 | 0.00 | 0.00 | 0.00 | 82 | 1013.7 |
| 20260510042230 | 14 | 152 | 1.6 | 1.6 | 0.00 | 0.00 | 0.00 | 82 | 1013.7 |
| 20260510041727 | 15 | 152 | 0.0 | 0.0 | 0.00 | 0.00 | 0.00 | 82 | 1013.4 |
| 20260510041224 | 15 | 158 | 0.0 | 0.0 | 0.00 | 0.00 | 0.00 | 81 | 1013.4 |
| 20260510040721 | 15 | 158 | 0.0 | 0.0 | 0.00 | 0.00 | 0.00 | 79 | 1013.4 |
| 20260510040218 | 15 | 158 | 0.0 | 0.0 | 0.00 | 0.00 | 0.00 | 77 | 1013.2 |
| 20260510035713 | 15 | 155 | 0.0 | 0.0 | 0.00 | 0.00 | 0.00 | 75 | 1013.6 |
| 20260510035210 | 15 | 157 | 0.0 | 0.0 | 0.00 | 0.00 | 0.00 | 81 | 1013.6 |
| 20260510034705 | 16 | 152 | 0.0 | 1.6 | 0.00 | 0.00 | 0.00 | 81 | 1013.4 |
| 20260510034203 | 16 | 156 | 0.0 | 0.0 | 0.00 | 0.00 | 0.00 | 78 | 1013.6 |
| 20260510033659 | 15 | 155 | 0.0 | 0.0 | 0.00 | 0.00 | 0.00 | 78 | 1013.2 |
| 20260510033157 | 16 | 158 | 0.0 | 1.6 | 0.00 | 0.00 | 0.00 | 80 | 1013.0 |
| 20260510032653 | 16 | 146 | 1.6 | 1.6 | 0.00 | 0.00 | 0.00 | 79 | 1012.8 |
| 20260510032149 | 17 | 139 | 1.6 | 1.6 | 0.00 | 0.00 | 0.00 | 73 | 1012.8 |
| 20260510031643 | 17 | 158 | 1.6 | 1.6 | 0.00 | 0.00 | 0.00 | 74 | 1012.5 |
| 20260510031140 | 16 | 154 | 1.6 | 1.6 | 0.00 | 0.00 | 0.00 | 79 | 1012.5 |
| 20260510030635 | 16 | 157 | 0.0 | 0.0 | 0.00 | 0.00 | 0.00 | 84 | 1012.6 |
| 20260510030133 | 16 | 156 | 0.0 | 0.0 | 0.00 | 0.00 | 0.00 | 82 | 1012.4 |
| 20260510025630 | 16 | 152 | 0.0 | 0.0 | 0.00 | 0.00 | 0.00 | 80 | 1012.4 |
| 20260510025127 | 16 | 154 | 0.0 | 0.0 | 0.00 | 0.00 | 0.00 | 77 | 1012.4 |
| 20260510024624 | 16 | 155 | 0.0 | 0.0 | 0.00 | 0.00 | 0.00 | 80 | 1012.4 |
| 20260510024120 | 16 | 156 | 0.0 | 0.0 | 0.00 | 0.00 | 0.00 | 79 | 1012.4 |
| 20260510023616 | 16 | 157 | 0.0 | 0.0 | 0.00 | 0.00 | 0.00 | 75 | 1012.1 |
| 20260510023114 | 17 | 153 | 0.0 | 0.0 | 0.00 | 0.00 | 0.00 | 73 | 1012.1 |
| 20260510022614 | 17 | 156 | 0.0 | 0.0 | 0.00 | 0.00 | 0.00 | 71 | 1012.0 |
| 20260510022108 | 17 | 145 | 1.6 | 1.6 | 0.00 | 0.00 | 0.00 | 74 | 1011.8 |
| 20260510021604 | 17 | 156 | 0.0 | 0.0 | 0.00 | 0.00 | 0.00 | 71 | 1011.6 |
| 20260510021102 | 18 | 157 | 0.0 | 0.0 | 0.00 | 0.00 | 0.00 | 65 | 1011.5 |
| 20260510020556 | 18 | 156 | 0.0 | 1.6 | 0.00 | 0.00 | 0.00 | 64 | 1011.5 |
| 20260510020052 | 18 | 151 | 1.6 | 1.6 | 0.00 | 0.00 | 0.00 | 66 | 1011.3 |
| 20260510015548 | 18 | 150 | 1.6 | 1.6 | 0.00 | 0.00 | 0.00 | 66 | 1011.2 |
| 20260510015044 | 19 | 157 | 0.0 | 0.0 | 0.00 | 0.00 | 0.00 | 64 | 1011.1 |
| 20260510014540 | 19 | 159 | 0.0 | 0.0 | 0.00 | 0.00 | 0.00 | 63 | 1011.0 |
| 20260510014037 | 19 | 157 | 0.0 | 0.0 | 0.00 | 0.00 | 0.00 | 67 | 1011.0 |
| 20260510013531 | 20 | 154 | 0.0 | 0.0 | 0.00 | 0.00 | 0.00 | 67 | 1010.9 |
| 20260510013027 | 20 | 155 | 0.0 | 0.0 | 0.00 | 0.00 | 0.00 | 60 | 1010.7 |
| 20260510012522 | 20 | 157 | 0.0 | 0.0 | 0.00 | 0.00 | 0.00 | 60 | 1010.7 |
| 20260510012019 | 20 | 157 | 0.0 | 0.0 | 0.00 | 0.00 | 0.00 | 61 | 1010.7 |
| 20260510011519 | 20 | 157 | 0.0 | 0.0 | 0.00 | 0.00 | 0.00 | 60 | 1010.4 |
| 20260510011015 | 21 | 157 | 0.0 | 0.0 | 0.00 | 0.00 | 0.00 | 60 | 1010.4 |
| 20260510010512 | 21 | 158 | 0.0 | 0.0 | 0.00 | 0.00 | 0.00 | 60 | 1010.4 |
| 20260510010009 | 22 | 158 | 0.0 | 0.0 | 0.00 | 0.00 | 0.00 | 58 | 1010.3 |
| 20260510005504 | 22 | 158 | 0.0 | 0.0 | 0.00 | 0.00 | 0.00 | 55 | 1010.3 |
| 20260510005002 | 22 | 158 | 0.0 | 0.0 | 0.00 | 0.00 | 0.00 | 61 | 1010.1 |
| 20260510004459 | 23 | 158 | 0.0 | 0.0 | 0.00 | 0.00 | 0.00 | 54 | 1010.1 |
| 20260510003957 | 23 | 161 | 0.0 | 1.6 | 0.00 | 0.00 | 0.00 | 49 | 1010.3 |
| 20260510003454 | 23 | 158 | 0.0 | 0.0 | 0.00 | 0.00 | 0.00 | 55 | 1010.1 |
| 20260510002949 | 23 | 161 | 0.0 | 1.6 | 0.00 | 0.00 | 0.00 | 48 | 1010.3 |
| 20260510002445 | 23 | 160 | 0.0 | 0.0 | 0.00 | 0.00 | 0.00 | 49 | 1010.2 |
| 20260510001942 | 23 | 160 | 1.6 | 1.6 | 0.00 | 0.00 | 0.00 | 51 | 1010.2 |
| 20260510001439 | 24 | 160 | 1.6 | 1.6 | 0.00 | 0.00 | 0.00 | 47 | 1010.3 |
| 20260510000937 | 25 | 159 | 1.6 | 1.6 | 0.00 | 0.00 | 0.00 | 47 | 1010.3 |
| 20260510000433 | 25 | 161 | 0.0 | 0.0 | 0.00 | 0.00 | 0.00 | 51 | 1010.3 |
| 20260509235929 | 25 | 160 | 0.0 | 0.0 | 0.00 | 0.00 | 0.00 | 49 | 1010.4 |
| 20260509235426 | 26 | 157 | 0.0 | 0.0 | 0.00 | 0.00 | 0.00 | 47 | 1010.3 |
| 20260509234922 | 26 | 150 | 0.0 | 1.6 | 0.00 | 0.00 | 0.00 | 45 | 1010.3 |
| 20260509234419 | 26 | 147 | 0.0 | 1.6 | 0.00 | 0.00 | 0.00 | 45 | 1010.2 |
| 20260509233917 | 26 | 152 | 1.6 | 1.6 | 0.00 | 0.00 | 0.00 | 42 | 1010.3 |
| 20260509233414 | 26 | 159 | 0.0 | 0.0 | 0.00 | 0.00 | 0.00 | 43 | 1010.2 |
| 20260509232910 | 27 | 165 | 1.6 | 1.6 | 0.00 | 0.00 | 0.00 | 39 | 1010.4 |
| 20260509232403 | 27 | 160 | 0.0 | 0.0 | 0.00 | 0.00 | 0.00 | 40 | 1010.2 |
| 20260509231858 | 26 | 159 | 0.0 | 0.0 | 0.00 | 0.00 | 0.00 | 42 | 1010.2 |
| 20260509231355 | 26 | 159 | 0.0 | 0.0 | 0.00 | 0.00 | 0.00 | 46 | 1010.3 |
| 20260509230853 | 26 | 164 | 0.0 | 0.0 | 0.00 | 0.00 | 0.00 | 41 | 1010.3 |
| 20260509230350 | 26 | 160 | 0.0 | 0.0 | 0.00 | 0.00 | 0.00 | 41 | 1010.3 |
| 20260509225845 | 26 | 163 | 1.6 | 1.6 | 0.00 | 0.00 | 0.00 | 40 | 1010.4 |
| 20260509225342 | 27 | 176 | 1.6 | 3.2 | 0.00 | 0.00 | 0.00 | 41 | 1010.7 |
| 20260509224838 | 26 | 161 | 0.0 | 1.6 | 0.00 | 0.00 | 0.00 | 45 | 1010.5 |
| 20260509224334 | 25 | 188 | 3.2 | 4.8 | 0.00 | 0.00 | 0.00 | 44 | 1010.4 |
| 20260509223831 | 25 | 161 | 1.6 | 1.6 | 0.00 | 0.00 | 0.00 | 41 | 1010.3 |
| 20260509223327 | 26 | 147 | 0.0 | 1.6 | 0.00 | 0.00 | 0.00 | 38 | 1010.4 |
| 20260509222825 | 27 | 160 | 0.0 | 0.0 | 0.00 | 0.00 | 0.00 | 42 | 1010.5 |
| 20260509222320 | 26 | 160 | 0.0 | 0.0 | 0.00 | 0.00 | 0.00 | 37 | 1010.5 |
| 20260509221815 | 26 | 138 | 3.2 | 3.2 | 0.00 | 0.00 | 0.00 | 37 | 1010.4 |
| 20260509221313 | 26 | 154 | 1.6 | 1.6 | 0.00 | 0.00 | 0.00 | 38 | 1010.5 |
| 20260509220808 | 27 | 204 | 3.2 | 3.2 | 0.00 | 0.00 | 0.00 | 39 | 1010.2 |
| 20260509220305 | 26 | 167 | 0.0 | 1.6 | 0.00 | 0.00 | 0.00 | 37 | 1010.5 |
| 20260509215800 | 27 | 118 | 4.8 | 4.8 | 0.00 | 0.00 | 0.00 | 38 | 1010.5 |
| 20260509215257 | 26 | 163 | 0.0 | 0.0 | 0.00 | 0.00 | 0.00 | 36 | 1010.4 |
| 20260509214754 | 26 | 223 | 4.8 | 4.8 | 0.00 | 0.00 | 0.00 | 39 | 1010.7 |
| 20260509214251 | 26 | 139 | 3.2 | 3.2 | 0.00 | 0.00 | 0.00 | 37 | 1010.5 |
| 20260509213748 | 26 | 181 | 3.2 | 4.8 | 0.00 | 0.00 | 0.00 | 42 | 1010.4 |
| 20260509213244 | 27 | 193 | 3.2 | 3.2 | 0.00 | 0.00 | 0.00 | 40 | 1010.5 |
| 20260509212741 | 26 | 165 | 0.0 | 0.0 | 0.00 | 0.00 | 0.00 | 41 | 1010.7 |
| 20260509212239 | 27 | 165 | 3.2 | 3.2 | 0.00 | 0.00 | 0.00 | 40 | 1010.9 |
| 20260509211734 | 27 | 179 | 1.6 | 1.6 | 0.00 | 0.00 | 0.00 | 39 | 1010.7 |
| 20260509211231 | 26 | 164 | 0.0 | 1.6 | 0.00 | 0.00 | 0.00 | 43 | 1010.9 |
| 20260509210727 | 26 | 173 | 6.4 | 6.4 | 0.00 | 0.00 | 0.00 | 42 | 1010.9 |
| 20260509210225 | 26 | 169 | 1.6 | 3.2 | 0.00 | 0.00 | 0.00 | 40 | 1010.9 |
| 20260509205724 | 26 | 161 | 0.0 | 0.0 | 0.00 | 0.00 | 0.00 | 42 | 1011.0 |
| 20260509205224 | 26 | 272 | 9.7 | 11.3 | 0.00 | 0.00 | 0.00 | 42 | 1010.9 |
| 20260509204721 | 26 | 201 | 3.2 | 4.8 | 0.00 | 0.00 | 0.00 | 41 | 1011.0 |
| 20260509204217 | 26 | 194 | 6.4 | 6.4 | 0.00 | 0.00 | 0.00 | 45 | 1011.1 |
| 20260509203713 | 26 | 109 | 4.8 | 4.8 | 0.00 | 0.00 | 0.00 | 41 | 1011.2 |
| 20260509203212 | 26 | 194 | 3.2 | 4.8 | 0.00 | 0.00 | 0.00 | 42 | 1011.1 |
| 20260509202707 | 27 | 167 | 0.0 | 0.0 | 0.00 | 0.00 | 0.00 | 42 | 1011.1 |
| 20260509202202 | 27 | 160 | 0.0 | 0.0 | 0.00 | 0.00 | 0.00 | 43 | 1011.2 |
| 20260509201657 | 26 | 164 | 0.0 | 1.6 | 0.00 | 0.00 | 0.00 | 41 | 1011.2 |
| 20260509201154 | 26 | 157 | 8.0 | 9.7 | 0.00 | 0.00 | 0.00 | 38 | 1011.2 |
| 20260509200651 | 26 | 162 | 4.8 | 4.8 | 0.00 | 0.00 | 0.00 | 38 | 1011.1 |
| 20260509200146 | 26 | 156 | 3.2 | 4.8 | 0.00 | 0.00 | 0.00 | 39 | 1011.1 |
| 20260509195642 | 26 | 170 | 6.4 | 6.4 | 0.00 | 0.00 | 0.00 | 40 | 1011.4 |
| 20260509195137 | 26 | 171 | 3.2 | 4.8 | 0.00 | 0.00 | 0.00 | 38 | 1011.3 |
| 20260509194637 | 27 | 158 | 1.6 | 3.2 | 0.00 | 0.00 | 0.00 | 39 | 1011.4 |
| 20260509194134 | 26 | 160 | 0.0 | 0.0 | 0.00 | 0.00 | 0.00 | 38 | 1011.4 |
| 20260509193630 | 26 | 224 | 4.8 | 4.8 | 0.00 | 0.00 | 0.00 | 39 | 1011.5 |
| 20260509193125 | 26 | 177 | 3.2 | 4.8 | 0.00 | 0.00 | 0.00 | 37 | 1011.4 |
| 20260509192623 | 26 | 177 | 3.2 | 3.2 | 0.00 | 0.00 | 0.00 | 38 | 1011.5 |
| 20260509192118 | 26 | 163 | 0.0 | 0.0 | 0.00 | 0.00 | 0.00 | 38 | 1011.6 |
| 20260509191612 | 26 | 170 | 3.2 | 4.8 | 0.00 | 0.00 | 0.00 | 41 | 1011.7 |
| 20260509191109 | 26 | 183 | 1.6 | 3.2 | 0.00 | 0.00 | 0.00 | 42 | 1011.7 |
| 20260509190606 | 26 | 155 | 0.0 | 0.0 | 0.00 | 0.00 | 0.00 | 42 | 1011.7 |
| 20260509190103 | 26 | 183 | 3.2 | 4.8 | 0.00 | 0.00 | 0.00 | 41 | 1011.7 |
| 20260509185601 | 26 | 172 | 3.2 | 3.2 | 0.00 | 0.00 | 0.00 | 40 | 1011.6 |
| 20260509185056 | 26 | 160 | 0.0 | 1.6 | 0.00 | 0.00 | 0.00 | 38 | 1011.6 |
| 20260509184555 | 25 | 181 | 1.6 | 3.2 | 0.00 | 0.00 | 0.00 | 40 | 1011.8 |
| 20260509184051 | 25 | 229 | 4.8 | 4.8 | 0.00 | 0.00 | 0.00 | 45 | 1011.7 |
| 20260509183547 | 26 | 173 | 3.2 | 3.2 | 0.00 | 0.00 | 0.00 | 40 | 1011.8 |
| 20260509183043 | 25 | 172 | 1.6 | 3.2 | 0.00 | 0.00 | 0.00 | 43 | 1011.9 |
| 20260509182539 | 25 | 278 | 4.8 | 9.7 | 0.00 | 0.00 | 0.00 | 39 | 1011.9 |
| 20260509182031 | 25 | 122 | 3.2 | 3.2 | 0.00 | 0.00 | 0.00 | 41 | 1011.8 |
| 20260509181529 | 25 | 163 | 1.6 | 1.6 | 0.00 | 0.00 | 0.00 | 43 | 1012.0 |
| 20260509181026 | 25 | 112 | 3.2 | 3.2 | 0.00 | 0.00 | 0.00 | 40 | 1011.8 |
| 20260509180521 | 25 | 194 | 3.2 | 4.8 | 0.00 | 0.00 | 0.00 | 43 | 1011.7 |
| 20260509180019 | 25 | 175 | 1.6 | 3.2 | 0.00 | 0.00 | 0.00 | 48 | 1011.8 |
| 20260509175514 | 25 | 192 | 3.2 | 4.8 | 0.00 | 0.00 | 0.00 | 50 | 1011.9 |
| 20260509175011 | 25 | 173 | 1.6 | 3.2 | 0.00 | 0.00 | 0.00 | 51 | 1011.8 |
| 20260509174508 | 25 | 188 | 4.8 | 6.4 | 0.00 | 0.00 | 0.00 | 53 | 1011.9 |
| 20260509174003 | 25 | 188 | 3.2 | 3.2 | 0.00 | 0.00 | 0.00 | 49 | 1012.1 |
| 20260509173457 | 25 | 200 | 6.4 | 6.4 | 0.00 | 0.00 | 0.00 | 47 | 1012.0 |
| 20260509172954 | 25 | 216 | 4.8 | 4.8 | 0.00 | 0.00 | 0.00 | 49 | 1012.0 |
| 20260509172451 | 24 | 264 | 4.8 | 6.4 | 0.00 | 0.00 | 0.00 | 48 | 1012.0 |
| 20260509171946 | 25 | 193 | 3.2 | 4.8 | 0.00 | 0.00 | 0.00 | 50 | 1012.1 |
| 20260509171443 | 25 | 287 | 6.4 | 11.3 | 0.00 | 0.00 | 0.00 | 47 | 1012.1 |
| 20260509170939 | 25 | 165 | 1.6 | 1.6 | 0.00 | 0.00 | 0.00 | 54 | 1012.1 |
| 20260509170435 | 25 | 161 | 0.0 | 0.0 | 0.00 | 0.00 | 0.00 | 53 | 1012.1 |
| 20260509165930 | 24 | 239 | 8.0 | 9.7 | 0.00 | 0.00 | 0.00 | 53 | 1012.2 |
| 20260509165425 | 25 | 188 | 6.4 | 6.4 | 0.00 | 0.00 | 0.00 | 54 | 1012.2 |
| 20260509164921 | 24 | 163 | 3.2 | 3.2 | 0.00 | 0.00 | 0.00 | 54 | 1012.0 |
| 20260509164417 | 23 | 160 | 0.0 | 0.0 | 0.00 | 0.00 | 0.00 | 52 | 1012.0 |
| 20260509163913 | 23 | 162 | 0.0 | 1.6 | 0.00 | 0.00 | 0.00 | 58 | 1011.9 |
| 20260509163410 | 23 | 178 | 3.2 | 3.2 | 0.00 | 0.00 | 0.00 | 60 | 1012.2 |
| 20260509162909 | 23 | 173 | 1.6 | 3.2 | 0.00 | 0.00 | 0.00 | 60 | 1012.2 |
| 20260509162408 | 23 | 173 | 1.6 | 3.2 | 0.00 | 0.00 | 0.00 | 60 | 1012.1 |
| 20260509161904 | 22 | 173 | 3.2 | 3.2 | 0.00 | 0.00 | 0.00 | 65 | 1012.0 |
| 20260509161400 | 23 | 167 | 1.6 | 1.6 | 0.00 | 0.00 | 0.00 | 65 | 1012.2 |
| 20260509160856 | 22 | 160 | 1.6 | 1.6 | 0.00 | 0.00 | 0.00 | 66 | 1012.1 |
| 20260509160352 | 22 | 181 | 3.2 | 3.2 | 0.00 | 0.00 | 0.00 | 68 | 1012.0 |
| 20260509155847 | 22 | 165 | 1.6 | 1.6 | 0.00 | 0.00 | 0.00 | 69 | 1012.2 |
| 20260509155344 | 21 | 176 | 3.2 | 3.2 | 0.00 | 0.00 | 0.00 | 68 | 1012.1 |
| 20260509154840 | 21 | 177 | 4.8 | 6.4 | 0.00 | 0.00 | 0.00 | 69 | 1011.9 |
| 20260509154337 | 22 | 164 | 1.6 | 1.6 | 0.00 | 0.00 | 0.00 | 69 | 1012.0 |
| 20260509153834 | 21 | 182 | 3.2 | 3.2 | 0.00 | 0.00 | 0.00 | 68 | 1012.0 |
| 20260509153331 | 21 | 181 | 3.2 | 4.8 | 0.00 | 0.00 | 0.00 | 71 | 1012.0 |
| 20260509152827 | 21 | 164 | 3.2 | 3.2 | 0.00 | 0.00 | 0.00 | 71 | 1011.9 |
| 20260509152323 | 21 | 160 | 1.6 | 1.6 | 0.00 | 0.00 | 0.00 | 71 | 1011.9 |
| 20260509151821 | 21 | 177 | 3.2 | 6.4 | 0.00 | 0.00 | 0.00 | 73 | 1012.0 |
| 20260509151316 | 21 | 170 | 1.6 | 1.6 | 0.00 | 0.00 | 0.00 | 72 | 1012.0 |
| 20260509150815 | 20 | 148 | 4.8 | 4.8 | 0.00 | 0.00 | 0.00 | 74 | 1012.0 |
| 20260509150307 | 20 | 157 | 1.6 | 1.6 | 0.00 | 0.00 | 0.00 | 76 | 1011.9 |
| 20260509145804 | 20 | 162 | 1.6 | 1.6 | 0.00 | 0.00 | 0.00 | 77 | 1012.1 |
| 20260509145306 | 20 | 192 | 3.2 | 3.2 | 0.00 | 0.00 | 0.00 | 79 | 1012.0 |
| 20260509144800 | 19 | 160 | 1.6 | 1.6 | 0.00 | 0.00 | 0.00 | 77 | 1012.1 |
| 20260509144258 | 20 | 167 | 3.2 | 3.2 | 0.00 | 0.00 | 0.00 | 77 | 1012.1 |
| 20260509143754 | 19 | 163 | 1.6 | 1.6 | 0.00 | 0.00 | 0.00 | 80 | 1012.1 |
| 20260509143252 | 18 | 172 | 3.2 | 3.2 | 0.00 | 0.00 | 0.00 | 80 | 1012.0 |
| 20260509142747 | 18 | 163 | 3.2 | 4.8 | 0.00 | 0.00 | 0.00 | 82 | 1012.0 |
| 20260509142244 | 18 | 169 | 3.2 | 4.8 | 0.00 | 0.00 | 0.00 | 82 | 1012.0 |
| 20260509141740 | 17 | 172 | 4.8 | 4.8 | 0.00 | 0.00 | 0.00 | 83 | 1011.9 |
| 20260509141237 | 17 | 194 | 6.4 | 6.4 | 0.00 | 0.00 | 0.00 | 85 | 1011.8 |
| 20260509140734 | 17 | 160 | 3.2 | 3.2 | 0.00 | 0.00 | 0.00 | 83 | 1012.0 |
| 20260509140231 | 17 | 179 | 4.8 | 6.4 | 0.00 | 0.00 | 0.00 | 86 | 1011.8 |
| 20260509135728 | 16 | 180 | 6.4 | 6.4 | 0.00 | 0.00 | 0.00 | 86 | 1011.8 |
| 20260509135226 | 16 | 172 | 3.2 | 4.8 | 0.00 | 0.00 | 0.00 | 87 | 1011.7 |
| 20260509134723 | 16 | 179 | 8.0 | 9.7 | 0.00 | 0.00 | 0.00 | 86 | 1011.7 |
| 20260509134220 | 16 | 191 | 6.4 | 6.4 | 0.00 | 0.00 | 0.00 | 87 | 1011.6 |
| 20260509133717 | 16 | 162 | 1.6 | 3.2 | 0.00 | 0.00 | 0.00 | 88 | 1011.5 |
| 20260509133214 | 15 | 185 | 6.4 | 6.4 | 0.00 | 0.00 | 0.00 | 88 | 1011.4 |
| 20260509132713 | 16 | 187 | 6.4 | 6.4 | 0.00 | 0.00 | 0.00 | 89 | 1011.6 |
| 20260509132211 | 15 | 175 | 6.4 | 6.4 | 0.00 | 0.00 | 0.00 | 88 | 1011.3 |
| 20260509131707 | 15 | 184 | 3.2 | 3.2 | 0.00 | 0.00 | 0.00 | 88 | 1011.5 |
| 20260509131204 | 15 | 183 | 6.4 | 6.4 | 0.00 | 0.00 | 0.00 | 90 | 1011.5 |
| 20260509130659 | 15 | 185 | 9.7 | 11.3 | 0.00 | 0.00 | 0.00 | 90 | 1011.6 |
| 20260509130156 | 15 | 172 | 3.2 | 4.8 | 0.00 | 0.00 | 0.00 | 90 | 1011.4 |
| 20260509125652 | 15 | 184 | 4.8 | 4.8 | 0.00 | 0.00 | 0.00 | 89 | 1011.3 |
| 20260509125149 | 15 | 166 | 1.6 | 1.6 | 0.00 | 0.00 | 0.00 | 90 | 1011.4 |
| 20260509124646 | 15 | 179 | 3.2 | 3.2 | 0.00 | 0.00 | 0.00 | 91 | 1011.3 |
| 20260509124143 | 16 | 173 | 3.2 | 3.2 | 0.00 | 0.00 | 0.00 | 84 | 1011.4 |
| 20260509123641 | 15 | 155 | 0.0 | 0.0 | 0.00 | 0.00 | 0.00 | 87 | 1011.2 |
| 20260509123137 | 15 | 154 | 0.0 | 0.0 | 0.00 | 0.00 | 0.00 | 87 | 1011.2 |
| 20260509122633 | 13 | 153 | 0.0 | 0.0 | 0.00 | 0.00 | 0.00 | 89 | 1011.1 |
| 20260509122130 | 13 | 153 | 0.0 | 0.0 | 0.00 | 0.00 | 0.00 | 89 | 1011.1 |
| 20260509121626 | 12 | 150 | 0.0 | 0.0 | 0.00 | 0.00 | 0.00 | 90 | 1011.0 |
| 20260509121125 | 11 | 152 | 0.0 | 0.0 | 0.00 | 0.00 | 0.00 | 92 | 1011.1 |
| 20260509120622 | 11 | 148 | 1.6 | 1.6 | 0.00 | 0.00 | 0.00 | 93 | 1011.1 |
| 20260509120121 | 11 | 146 | 1.6 | 1.6 | 0.00 | 0.00 | 0.00 | 95 | 1010.9 |
| 20260509115617 | 10 | 151 | 0.0 | 0.0 | 0.00 | 0.00 | 0.00 | 97 | 1010.9 |
| 20260509115115 | 10 | 143 | 1.6 | 1.6 | 0.00 | 0.00 | 0.00 | 98 | 1011.0 |
| 20260509114613 | 10 | 140 | 1.6 | 3.2 | 0.00 | 0.00 | 0.00 | 98 | 1010.9 |
| 20260509114112 | 10 | 146 | 1.6 | 1.6 | 0.00 | 0.00 | 0.00 | 98 | 1010.9 |
| 20260509113609 | 10 | 156 | 0.0 | 0.0 | 0.00 | 0.00 | 0.00 | 99 | 1010.9 |
| 20260509113107 | 10 | 152 | 1.6 | 1.6 | 0.00 | 0.00 | 0.00 | 99 | 1010.9 |
| 20260509112603 | 9 | 152 | 0.0 | 1.6 | 0.00 | 0.00 | 0.00 | 99 | 1010.7 |
| 20260509112100 | 10 | 154 | 0.0 | 0.0 | 0.00 | 0.00 | 0.00 | 99 | 1010.7 |
| 20260509111557 | 10 | 155 | 0.0 | 0.0 | 0.00 | 0.00 | 0.00 | 99 | 1010.8 |
| 20260509111054 | 10 | 153 | 0.0 | 0.0 | 0.00 | 0.00 | 0.00 | 99 | 1010.7 |
| 20260509110551 | 10 | 156 | 0.0 | 0.0 | 0.00 | 0.00 | 0.00 | 99 | 1010.7 |
| 20260509110048 | 9 | 155 | 0.0 | 0.0 | 0.00 | 0.00 | 0.00 | 99 | 1010.5 |
| 20260509105547 | 9 | 158 | 0.0 | 0.0 | 0.00 | 0.00 | 0.00 | 98 | 1010.7 |
| 20260509105044 | 9 | 160 | 0.0 | 0.0 | 0.00 | 0.00 | 0.00 | 98 | 1010.5 |
| 20260509104541 | 9 | 163 | 0.0 | 0.0 | 0.00 | 0.00 | 0.00 | 98 | 1010.5 |
| 20260509104037 | 10 | 159 | 0.0 | 0.0 | 0.00 | 0.00 | 0.00 | 98 | 1010.5 |
| 20260509103535 | 10 | 158 | 0.0 | 0.0 | 0.00 | 0.00 | 0.00 | 98 | 1010.3 |
| 20260509103033 | 10 | 156 | 0.0 | 0.0 | 0.00 | 0.00 | 0.00 | 98 | 1010.1 |
| 20260509102530 | 10 | 155 | 0.0 | 0.0 | 0.00 | 0.00 | 0.00 | 98 | 1010.3 |
| 20260509102027 | 10 | 153 | 0.0 | 0.0 | 0.00 | 0.00 | 0.00 | 98 | 1010.4 |
| 20260509101523 | 10 | 158 | 0.0 | 0.0 | 0.00 | 0.00 | 0.00 | 98 | 1010.3 |
| 20260509101020 | 10 | 156 | 0.0 | 0.0 | 0.00 | 0.00 | 0.00 | 98 | 1010.5 |
| 20260509100518 | 10 | 156 | 0.0 | 0.0 | 0.00 | 0.00 | 0.00 | 98 | 1010.5 |
| 20260509100015 | 10 | 154 | 0.0 | 0.0 | 0.00 | 0.00 | 0.00 | 98 | 1010.4 |
| 20260509095511 | 10 | 155 | 0.0 | 0.0 | 0.00 | 0.00 | 0.00 | 97 | 1010.4 |
| 20260509095009 | 10 | 155 | 0.0 | 0.0 | 0.00 | 0.00 | 0.00 | 97 | 1010.5 |
| 20260509094505 | 10 | 154 | 0.0 | 0.0 | 0.00 | 0.00 | 0.00 | 97 | 1010.7 |
| 20260509094002 | 10 | 157 | 0.0 | 0.0 | 0.00 | 0.00 | 0.00 | 97 | 1010.7 |
| 20260509093500 | 10 | 159 | 0.0 | 0.0 | 0.00 | 0.00 | 0.00 | 97 | 1010.7 |
| 20260509092957 | 10 | 157 | 0.0 | 0.0 | 0.00 | 0.00 | 0.00 | 97 | 1010.8 |
| 20260509092455 | 11 | 158 | 0.0 | 0.0 | 0.00 | 0.00 | 0.00 | 96 | 1010.5 |
| 20260509091954 | 11 | 157 | 0.0 | 0.0 | 0.00 | 0.00 | 0.00 | 96 | 1010.7 |
| 20260509091450 | 11 | 157 | 0.0 | 0.0 | 0.00 | 0.00 | 0.00 | 95 | 1010.8 |
| 20260509090947 | 11 | 159 | 0.0 | 0.0 | 0.00 | 0.00 | 0.00 | 95 | 1011.0 |
| 20260509090445 | 11 | 161 | 0.0 | 0.0 | 0.00 | 0.00 | 0.00 | 94 | 1010.8 |
| 20260509085942 | 11 | 159 | 0.0 | 0.0 | 0.00 | 0.00 | 0.00 | 93 | 1011.0 |
| 20260509085439 | 11 | 153 | 0.0 | 0.0 | 0.00 | 0.00 | 0.00 | 93 | 1010.9 |
| 20260509084935 | 12 | 166 | 1.6 | 1.6 | 0.00 | 0.00 | 0.00 | 93 | 1011.0 |
| 20260509084432 | 12 | 169 | 1.6 | 1.6 | 0.00 | 0.00 | 0.00 | 92 | 1011.1 |
| 20260509083930 | 12 | 174 | 3.2 | 3.2 | 0.00 | 0.00 | 0.00 | 91 | 1010.9 |